Location: Grange Rosano
(44.4500°N, 6.9667°E)
Time: 20:04:22
(UTC+00:00)

Cosmos 1544 Rocket - Pass Details

Date: 26 May 2022
Orbit: 603 x 631 km, 82.5° (Epoch: 01 July)

Event Time Altitude Azimuth Distance (km) Brightness Sun altitude
Rises 01:04:41 0° 355° (N) 2,917 8.0 -20.9°
Reaches altitude 10° 01:06:58 10° 359° (N) 2,001 7.1 -20.7°
Maximum altitude 01:11:21 59° 79° (E) 719 4.0 -20.4°
Enters shadow 01:13:17 31° 146° (SSE) 1,092 4.5 -20.3°
